Weather History for KSNT - April, 2013

Change the Weather History Date:

Friday, April 12, 2013

  Actual Average Record
Temperature  
Mean Temperature 33 °F 32 °F  
Max Temperature 51 °F 46 °F 67 °F (1988)
Min Temperature 15 °F 19 °F 2 °F (1997)
Degree Days  
Heating Degree Days 32 33  
Month to date heating degree days 348 407  
Since 1 July heating degree days 8632 9125  
Cooling Degree Days 0 0  
Month to date cooling degree days 0 0  
Year to date cooling degree days 0 0  
Moisture  
Dew Point 14 °F    
Average Humidity 55    
Maximum Humidity 92    
Minimum Humidity 17    
Precipitation  
Precipitation 0.00 in 0.05 in 0.25 in (1993)
Month to date precipitation 0.78 0.73  
Year to date precipitation 3.61 5.85  
Sea Level Pressure  
Sea Level Pressure 29.87 in    
Wind  
Wind Speed 5 mph (SSW)    
Max Wind Speed 15 mph    
Max Gust Speed 23 mph    
T = Trace of Precipitation, MM = Missing Value Source: NWS Daily Summary

Daily Weather History Graph

Daily Weather History Graph

Search for Another Location

Airport or City:

Trip Planner

Search our weather history database for the weather conditions in past years. The results will help you decide how hot, cold, wet, or windy it might be!

Date:

Astronomy

Apr. 12, 2013 Rise Set
Actual Time 7:00 AM MDT 8:20 PM MDT
Civil Twilight 6:30 AM MDT 8:50 PM MDT
Nautical Twilight 5:54 AM MDT 9:26 PM MDT
Astronomical Twilight 5:16 AM MDT 10:05 PM MDT
Moon 8:08 AM MDT (4/12) 11:00 PM MDT (4/12)
Length of Visible Light 14h 19m
Length of Day
13h 19m
Waxing Crescent, 5% of the Moon is Illuminated
Apr 12
Waxing Crescent
Apr 18
First Quarter
Apr 25
Full
May 2
Last Quarter
May 9
New

Hourly Weather History & Observations

Time (MDT) Temp. Windchill Dew Point Humidity Pressure Visibility Wind Dir Wind Speed Gust Speed Precip Events Conditions
12:51 AM 27.0 °F - 18.0 °F 69% 29.91 in - Calm Calm - N/A   Unknown
1:51 AM 24.1 °F 19.7 °F 18.0 °F 77% 29.92 in - South 3.5 mph - N/A   Unknown
2:51 AM 21.9 °F 17.2 °F 17.1 °F 82% 29.93 in - South 3.5 mph - N/A   Unknown
3:51 AM 19.9 °F - 16.0 °F 85% 29.93 in - Calm Calm - N/A   Unknown
4:51 AM 19.9 °F - 16.0 °F 85% 29.94 in - Calm Calm - N/A   Unknown
5:51 AM 18.0 °F 12.7 °F 15.1 °F 88% 29.96 in - South 3.5 mph - N/A   Unknown
6:51 AM 16.0 °F - 14.0 °F 92% 29.99 in - Calm Calm - N/A   Unknown
7:51 AM 19.9 °F - 15.1 °F 81% 30.01 in - Calm Calm - N/A   Unknown
8:51 AM 26.1 °F 18.4 °F 18.0 °F 71% 30.01 in - East 6.9 mph - N/A   Unknown
9:51 AM 32.0 °F 27.5 °F 18.0 °F 56% 29.97 in - ENE 4.6 mph - N/A   Unknown
10:51 AM 36.0 °F 29.6 °F 19.0 °F 50% 29.95 in - NNW 8.1 mph - N/A   Unknown
11:51 AM 41.0 °F 37.1 °F 18.0 °F 40% 29.90 in - Variable 5.8 mph - N/A   Unknown
12:51 PM 46.0 °F 43.1 °F 15.1 °F 29% 29.87 in - Variable 5.8 mph - N/A   Unknown
1:51 PM 46.9 °F - 10.9 °F 23% 29.85 in - WNW 5.8 mph - N/A   Unknown
2:51 PM 45.0 °F 40.1 °F 7.0 °F 21% 29.86 in - WSW 9.2 mph - N/A   Unknown
3:51 PM 48.9 °F - 8.1 °F 19% 29.82 in - WSW 10.4 mph 17.3 mph N/A   Unknown
4:51 PM 50.0 °F - 8.1 °F 18% 29.79 in - Calm Calm - N/A   Unknown
5:51 PM 48.0 °F - 10.0 °F 22% 29.78 in - SSW 5.8 mph - N/A   Unknown
6:51 PM 46.9 °F - 5.0 °F 18% 29.79 in - West 4.6 mph - N/A   Unknown
7:51 PM 44.1 °F - 3.0 °F 18% 29.78 in - Calm Calm - N/A   Unknown
8:51 PM 39.0 °F 35.7 °F 12.0 °F 33% 29.75 in - SSE 4.6 mph - N/A   Unknown
9:51 PM 42.1 °F 37.7 °F 14.0 °F 32% 29.74 in - SW 6.9 mph 23.0 mph N/A   Unknown
10:51 PM 35.1 °F 29.3 °F 25.0 °F 67% 29.74 in - SE 6.9 mph - N/A   Unknown
11:51 PM 35.1 °F 27.4 °F 25.0 °F 67% 29.66 in - SE 10.4 mph 18.4 mph N/A   Unknown